New York, NY

4:00 AM EDT on March 28, 2017 (GMT -0400)
La Guardia

Weather History for KLGA - June, 2014

Change the Weather History Date:

Friday, June 6, 2014

  Actual Average Record
Temperature  
Mean Temperature 69 °F 69 °F  
Max Temperature 76 °F 78 °F 93 °F (1953)
Min Temperature 61 °F 61 °F 49 °F (1945)
Degree Days  
Heating Degree Days 0 1  
Month to date heating degree days 0 8  
Since 1 June heating degree days 0 8  
Since 1 July heating degree days 5016 4656  
Cooling Degree Days 4 5  
Month to date cooling degree days 32 29  
Year to date cooling degree days 82 95  
Since 1 June cooling degree days 32 29  
Growing Degree Days 18 (Base 50)    
Moisture  
Dew Point 48 °F    
Average Humidity 48    
Maximum Humidity 60    
Minimum Humidity 36    
Precipitation  
Precipitation 0.00 in 0.14 in 2.56 in (2000)
Month to date precipitation 0.76 0.84  
Year to date precipitation 24.64 18.53  
Snow  
Snow 0.00 in 0.00 in - ()
Month to date snowfall 0.0 0.0  
Since 1 July snowfall 52.4 26.9  
Snow Depth 0.00 in    
Sea Level Pressure  
Sea Level Pressure 29.86 in    
Wind  
Wind Speed 12 mph (NW)    
Max Wind Speed 20 mph    
Max Gust Speed 24 mph    
Visibility 10 miles    
Events      
T = Trace of Precipitation, MM = Missing Value Source: NWS Daily Summary

Daily Weather History Graph

Daily Weather History Graph

Search for Another Location

Airport or City:

Trip Planner

Search our weather history database for the weather conditions in past years. The results will help you decide how hot, cold, wet, or windy it might be!

Date:

Astronomy

Jun. 06, 2014 Rise Set
Actual Time 5:24 AM EDT 8:24 PM EDT
Civil Twilight 4:51 AM EDT 8:57 PM EDT
Nautical Twilight 4:09 AM EDT 9:39 PM EDT
Astronomical Twilight 3:20 AM EDT 10:28 PM EDT
Moon 1:38 PM EDT (6/6) 1:17 AM EDT (6/6)
Length of Visible Light 16h 05m
Length of Day
14h 59m
First Quarter, 58% of the Moon is Illuminated
Jun 6
First Quarter
Jun 13
Full
Jun 19
Last Quarter
Jun 27
New
Jul 5
First Quarter

Hourly Weather History & Observations

Time (EDT) Temp. Dew Point Humidity Pressure Visibility Wind Dir Wind Speed Gust Speed Precip Events Conditions
12:51 AM 64.9 °F 46.0 °F 50% 29.79 in 10.0 mi NNW 15.0 mph 21.9 mph N/A   Mostly Cloudy
1:51 AM 64.0 °F 46.0 °F 52% 29.79 in 10.0 mi NW 12.7 mph - N/A   Mostly Cloudy
2:51 AM 63.0 °F 46.9 °F 56% 29.80 in 10.0 mi NW 11.5 mph - N/A   Mostly Cloudy
3:51 AM 63.0 °F 46.9 °F 56% 29.80 in 10.0 mi NW 10.4 mph - N/A   Overcast
4:51 AM 62.1 °F 46.9 °F 58% 29.80 in 10.0 mi NW 15.0 mph - N/A   Mostly Cloudy
5:51 AM 62.1 °F 46.0 °F 56% 29.83 in 10.0 mi NW 12.7 mph - N/A   Scattered Clouds
6:51 AM 61.0 °F 46.9 °F 60% 29.85 in 10.0 mi NW 16.1 mph - N/A   Partly Cloudy
7:51 AM 62.1 °F 48.0 °F 60% 29.87 in 10.0 mi WNW 12.7 mph - N/A   Partly Cloudy
8:51 AM 64.0 °F 48.0 °F 56% 29.87 in 10.0 mi NW 13.8 mph - N/A   Partly Cloudy
9:51 AM 66.0 °F 48.9 °F 54% 29.87 in 10.0 mi NNW 11.5 mph - N/A   Scattered Clouds
10:51 AM 68.0 °F 48.0 °F 49% 29.88 in 10.0 mi NW 11.5 mph - N/A   Mostly Cloudy
11:51 AM 68.0 °F 46.9 °F 47% 29.88 in 10.0 mi NW 13.8 mph - N/A   Mostly Cloudy
12:51 PM 70.0 °F 48.0 °F 46% 29.87 in 10.0 mi NNW 12.7 mph 20.7 mph N/A   Mostly Cloudy
1:51 PM 72.0 °F 48.0 °F 43% 29.87 in 10.0 mi North 11.5 mph 17.3 mph N/A   Mostly Cloudy
2:51 PM 73.0 °F 46.9 °F 39% 29.86 in 10.0 mi NNW 13.8 mph - N/A   Mostly Cloudy
3:51 PM 73.0 °F 48.0 °F 41% 29.86 in 10.0 mi NNW 9.2 mph - N/A   Mostly Cloudy
4:51 PM 75.9 °F 46.9 °F 36% 29.86 in 10.0 mi NW 9.2 mph - N/A   Mostly Cloudy
5:51 PM 73.9 °F 48.9 °F 41% 29.86 in 10.0 mi WNW 12.7 mph - N/A   Mostly Cloudy
6:51 PM 73.0 °F 48.9 °F 42% 29.88 in 10.0 mi NW 12.7 mph - N/A   Partly Cloudy
7:51 PM 73.0 °F 48.9 °F 42% 29.89 in 10.0 mi NW 15.0 mph - N/A   Scattered Clouds
8:51 PM 71.1 °F 50.0 °F 47% 29.91 in 10.0 mi NW 10.4 mph - N/A   Scattered Clouds
9:51 PM 70.0 °F 51.1 °F 51% 29.92 in 10.0 mi NW 8.1 mph - N/A   Clear
10:51 PM 70.0 °F 50.0 °F 49% 29.92 in 10.0 mi NW 9.2 mph - N/A   Clear
11:51 PM 69.1 °F 50.0 °F 51% 29.94 in 10.0 mi NW 12.7 mph - N/A   Clear